TimeEST,TemperatureF,Dew PointF,Humidity,Sea Level PressureIn,VisibilityMPH,Wind Direction,Wind SpeedMPH,Gust SpeedMPH,PrecipitationIn,Events,Conditions,WindDirDegrees,DateUTC
12:01 AM,42.8,28.4,57,30.23,10.0,North,9.2,-,N/A,,Clear,360,2012-12-12 05:01:00
12:22 AM,42.8,28.4,57,30.23,10.0,North,5.8,-,N/A,,Clear,360,2012-12-12 05:22:00
12:44 AM,42.8,28.4,57,30.23,10.0,North,8.1,-,N/A,,Clear,350,2012-12-12 05:44:00
1:05 AM,42.8,28.4,57,30.24,10.0,North,9.2,-,N/A,,Clear,360,2012-12-12 06:05:00
1:26 AM,42.8,28.4,57,30.24,10.0,North,6.9,-,N/A,,Clear,360,2012-12-12 06:26:00
1:48 AM,41.0,28.4,61,30.25,10.0,North,5.8,-,N/A,,Clear,360,2012-12-12 06:48:00
2:09 AM,41.0,30.2,65,30.25,10.0,NNE,4.6,-,N/A,,Clear,20,2012-12-12 07:09:00
2:30 AM,41.0,30.2,65,30.26,10.0,North,4.6,-,N/A,,Clear,10,2012-12-12 07:30:00
3:34 AM,41.0,30.2,65,30.30,10.0,Calm,Calm,-,N/A,,Clear,0,2012-12-12 08:34:00
3:55 AM,41.0,28.4,61,30.30,10.0,NNE,3.5,-,N/A,,Clear,20,2012-12-12 08:55:00
4:17 AM,39.2,28.4,65,30.30,10.0,North,3.5,-,N/A,,Clear,10,2012-12-12 09:17:00
4:38 AM,39.2,28.4,65,30.31,10.0,Calm,Calm,-,N/A,,Clear,0,2012-12-12 09:38:00
4:59 AM,39.2,28.4,65,30.31,10.0,Calm,Calm,-,N/A,,Clear,0,2012-12-12 09:59:00
5:21 AM,39.2,28.4,65,30.32,10.0,North,4.6,-,N/A,,Clear,350,2012-12-12 10:21:00
5:42 AM,39.2,28.4,65,30.33,10.0,North,3.5,-,N/A,,Clear,10,2012-12-12 10:42:00
6:03 AM,39.2,28.4,65,30.33,10.0,NNE,3.5,-,N/A,,Clear,20,2012-12-12 11:03:00
6:25 AM,39.2,28.4,65,30.34,10.0,Calm,Calm,-,N/A,,Scattered Clouds,0,2012-12-12 11:25:00
6:46 AM,39.2,28.4,65,30.35,10.0,Calm,Calm,-,N/A,,Scattered Clouds,0,2012-12-12 11:46:00
7:07 AM,39.2,28.4,65,30.36,10.0,Calm,Calm,-,N/A,,Scattered Clouds,0,2012-12-12 12:07:00
7:28 AM,37.4,28.4,70,30.36,10.0,Calm,Calm,-,N/A,,Clear,0,2012-12-12 12:28:00
7:50 AM,37.4,28.4,70,30.37,10.0,Calm,Calm,-,N/A,,Clear,0,2012-12-12 12:50:00
8:11 AM,39.2,30.2,70,30.37,10.0,NNE,3.5,-,N/A,,Clear,30,2012-12-12 13:11:00
8:32 AM,41.0,30.2,65,30.37,10.0,Calm,Calm,-,N/A,,Clear,0,2012-12-12 13:32:00
8:53 AM,41.0,32.0,70,30.38,10.0,Calm,Calm,-,N/A,,Clear,0,2012-12-12 13:53:00
9:15 AM,42.8,30.2,61,30.40,10.0,North,4.6,-,N/A,,Clear,360,2012-12-12 14:15:00
9:57 AM,42.8,30.2,61,30.41,10.0,North,4.6,-,N/A,,Clear,360,2012-12-12 14:57:00
10:18 AM,42.8,30.2,61,30.41,10.0,North,8.1,-,N/A,,Clear,350,2012-12-12 15:18:00
10:39 AM,42.8,28.4,57,30.41,10.0,North,6.9,-,N/A,,Clear,350,2012-12-12 15:39:00
11:01 AM,42.8,28.4,57,30.42,10.0,North,6.9,-,N/A,,Clear,360,2012-12-12 16:01:00
11:22 AM,42.8,30.2,61,30.41,10.0,North,8.1,-,N/A,,Clear,350,2012-12-12 16:22:00
11:43 AM,42.8,30.2,61,30.40,10.0,North,5.8,-,N/A,,Clear,350,2012-12-12 16:43:00
12:04 PM,42.8,30.2,61,30.40,10.0,North,8.1,-,N/A,,Clear,360,2012-12-12 17:04:00
12:26 PM,44.6,28.4,53,30.40,10.0,North,6.9,-,N/A,,Clear,360,2012-12-12 17:26:00
12:47 PM,42.8,28.4,57,30.39,10.0,NNW,6.9,-,N/A,,Clear,340,2012-12-12 17:47:00
1:29 PM,44.6,28.4,53,30.39,10.0,NNW,6.9,-,N/A,,Clear,340,2012-12-12 18:29:00
1:51 PM,42.8,28.4,57,30.38,10.0,North,8.1,-,N/A,,Clear,350,2012-12-12 18:51:00
2:12 PM,42.8,28.4,57,30.38,10.0,North,5.8,-,N/A,,Clear,360,2012-12-12 19:12:00
2:54 PM,42.8,28.4,57,30.38,10.0,North,5.8,-,N/A,,Clear,360,2012-12-12 19:54:00
3:15 PM,44.6,26.6,49,30.38,10.0,NNE,5.8,-,N/A,,Clear,20,2012-12-12 20:15:00
3:37 PM,42.8,26.6,53,30.39,10.0,North,4.6,-,N/A,,Clear,10,2012-12-12 20:37:00
3:58 PM,42.8,26.6,53,30.39,10.0,NNE,3.5,-,N/A,,Clear,20,2012-12-12 20:58:00
4:19 PM,42.8,28.4,57,30.39,10.0,Calm,Calm,-,N/A,,Clear,0,2012-12-12 21:19:00
4:40 PM,42.8,28.4,57,30.39,10.0,NNE,3.5,-,N/A,,Clear,20,2012-12-12 21:40:00
5:01 PM,42.8,28.4,57,30.39,10.0,Calm,Calm,-,N/A,,Clear,0,2012-12-12 22:01:00
5:23 PM,42.8,28.4,57,30.39,10.0,NNE,3.5,-,N/A,,Clear,20,2012-12-12 22:23:00
5:44 PM,41.0,28.4,61,30.39,10.0,NNE,3.5,-,N/A,,Clear,20,2012-12-12 22:44:00
6:05 PM,41.0,28.4,61,30.38,10.0,NNE,4.6,-,N/A,,Clear,30,2012-12-12 23:05:00
6:26 PM,42.8,28.4,57,30.39,10.0,NNE,5.8,-,N/A,,Clear,30,2012-12-12 23:26:00
6:48 PM,41.0,28.4,61,30.40,10.0,NNE,4.6,-,N/A,,Clear,30,2012-12-12 23:48:00
7:09 PM,41.0,30.2,65,30.41,10.0,North,5.8,-,N/A,,Clear,10,2012-12-13 00:09:00
7:30 PM,41.0,30.2,65,30.42,10.0,NNE,4.6,-,N/A,,Clear,20,2012-12-13 00:30:00
7:51 PM,41.0,30.2,65,30.43,10.0,NNE,4.6,-,N/A,,Clear,20,2012-12-13 00:51:00
8:34 PM,41.0,30.2,65,30.42,10.0,NNE,4.6,-,N/A,,Clear,20,2012-12-13 01:34:00
8:55 PM,41.0,30.2,65,30.41,10.0,North,4.6,-,N/A,,Clear,10,2012-12-13 01:55:00
9:16 PM,41.0,30.2,65,30.41,10.0,North,8.1,-,N/A,,Clear,10,2012-12-13 02:16:00
9:37 PM,41.0,30.2,65,30.43,10.0,North,5.8,-,N/A,,Clear,10,2012-12-13 02:37:00
9:59 PM,41.0,30.2,65,30.43,10.0,NNE,6.9,-,N/A,,Clear,20,2012-12-13 02:59:00
10:20 PM,41.0,30.2,65,30.43,10.0,North,4.6,-,N/A,,Clear,10,2012-12-13 03:20:00
10:41 PM,41.0,28.4,61,30.43,10.0,North,5.8,-,N/A,,Clear,360,2012-12-13 03:41:00
11:02 PM,41.0,28.4,61,30.42,10.0,North,5.8,-,N/A,,Clear,10,2012-12-13 04:02:00
11:24 PM,39.2,28.4,65,30.42,10.0,NNE,5.8,-,N/A,,Clear,20,2012-12-13 04:24:00